Date String (YYYY-MM-DD hh:mm:ss) UTC,Instrument flags,Ambient pressure (hPa),Sample flow (lpm),Bypass flow (lpm),Sample temperature (°C),Ambient temperature (°C),ASC tube jacket temperature (°C),LED temperature (°C),Box temperature (°C),Sample RH (%),Span deviation,Mass concentration (μg/m³),Mass concentration (μg/m³),Mass concentration (μg/m³)
DateTimeUTC,F1_M11,P_M11,Q1_M11,Q2_M11,T1_M11,T2_M11,T3_M11,T4_M11,T5_M11,U1_M11,ZSPAN_M11,X0_M11,X2_M11,X1_M11
2021-11-02 21:00:00,,0829.5,5.00,0.00,24.4,23.6,00.0,33.3,26.2,21.7,-001.6,0014.88,0011.38,0010.69
2021-11-02 21:01:00,,0829.5,5.01,0.00,24.4,23.6,00.0,33.3,26.2,21.6,-001.6,0015.01,0011.43,0010.70
2021-11-02 21:02:00,,0829.5,4.99,0.00,24.4,23.6,00.0,33.3,26.2,21.7,-001.6,0015.21,0011.43,0010.71
2021-11-02 21:03:00,,0829.5,5.00,0.00,24.4,23.7,00.0,33.3,26.2,21.7,-001.8,0015.20,0011.45,0010.73
2021-11-02 21:04:00,,0829.5,5.01,0.00,24.4,23.7,00.0,33.3,26.3,21.6,-001.9,0015.18,0011.49,0010.78
2021-11-02 21:05:00,,0829.5,5.00,0.00,24.4,23.7,00.0,33.3,26.3,21.7,-001.9,0015.26,0011.53,0010.82
2021-11-02 21:06:00,,0829.5,5.01,0.00,24.4,23.7,00.0,33.4,26.3,21.8,-001.9,0015.44,0011.53,0010.87
2021-11-02 21:07:00,,0829.5,5.00,0.00,24.4,23.7,00.0,33.4,26.3,21.7,-001.9,0015.66,0011.53,0010.88
2021-11-02 21:08:00,,0829.5,5.00,0.00,24.4,23.7,00.0,33.4,26.3,21.7,-001.9,0015.63,0011.57,0010.89
2021-11-02 21:09:00,,0829.5,4.99,0.00,24.4,23.7,00.0,33.4,26.3,21.8,-001.8,0015.36,0011.54,0010.88
2021-11-02 21:10:00,,0829.5,5.02,0.00,24.4,23.7,00.0,33.4,26.3,21.7,-001.6,0015.43,0011.58,0010.90
2021-11-02 21:11:00,,0829.5,4.99,0.00,24.4,23.7,00.0,33.4,26.3,21.6,-001.6,0015.54,0011.60,0010.93
2021-11-02 21:12:00,,0829.5,5.01,0.00,24.4,23.7,00.0,33.4,26.3,21.5,-001.7,0015.55,0011.60,0010.95
2021-11-02 21:13:00,,0829.5,5.00,0.00,24.4,23.7,00.0,33.4,26.3,21.5,-001.6,0015.34,0011.61,0010.97
2021-11-02 21:14:00,,0829.5,4.99,0.00,24.4,23.7,00.0,33.4,26.3,21.6,-001.4,0015.39,0011.62,0010.97
2021-11-02 21:15:00,,0829.5,5.01,0.00,24.4,23.7,00.0,33.4,26.3,21.4,-001.3,0015.51,0011.64,0010.95
2021-11-02 21:16:00,,0829.5,5.01,0.00,24.5,23.7,00.0,33.4,26.3,21.5,-001.3,0015.47,0011.62,0010.94
2021-11-02 21:17:00,,0829.5,4.98,0.00,24.5,23.7,00.0,33.4,26.3,21.5,-001.2,0015.17,0011.62,0010.93
2021-11-02 21:18:00,,0829.5,5.00,0.00,24.5,23.7,00.0,33.4,26.3,21.4,-001.3,0014.94,0011.61,0010.94
2021-11-02 21:19:00,,0829.5,5.00,0.00,24.5,23.7,00.0,33.4,26.3,21.4,-001.2,0014.84,0011.62,0010.96
2021-11-02 21:20:00,,0829.5,4.99,0.00,24.5,23.8,00.0,33.4,26.4,21.6,-001.1,0015.00,0011.68,0011.00
2021-11-02 21:21:00,,0829.5,5.01,0.00,24.5,23.8,00.0,33.4,26.4,21.6,-001.1,0015.06,0011.72,0011.04
2021-11-02 21:22:00,,0829.5,5.00,0.00,24.5,23.7,00.0,33.4,26.4,21.4,-001.2,0015.15,0011.78,0011.05
2021-11-02 21:23:00,,0829.5,5.00,0.00,24.5,23.8,00.0,33.5,26.4,21.4,-001.1,0015.15,0011.81,0011.07
2021-11-02 21:24:00,,0829.5,5.01,0.00,24.5,23.8,00.0,33.5,26.4,21.4,-001.5,0015.46,0011.84,0011.09
2021-11-02 21:25:00,,0829.5,5.01,0.00,24.5,23.8,00.0,33.5,26.4,21.5,-001.5,0015.52,0011.84,0011.12
2021-11-02 21:26:00,,0829.5,4.98,0.00,24.5,23.8,00.0,33.5,26.4,21.4,-001.4,0015.67,0011.80,0011.14
2021-11-02 21:27:00,,0829.5,5.00,0.00,24.5,23.8,00.0,33.5,26.4,21.4,-001.1,0015.68,0011.80,0011.15
2021-11-02 21:28:00,,0829.5,5.01,0.00,24.5,23.7,00.0,33.5,26.4,21.4,-001.2,0015.82,0011.80,0011.15
2021-11-02 21:29:00,,0829.5,5.00,0.00,24.5,23.7,00.0,33.5,26.4,21.3,-001.1,0015.84,0011.85,0011.15
2021-11-02 21:30:00,,0829.5,5.00,0.00,24.5,23.7,00.0,33.5,26.4,21.3,-001.2,0015.96,0011.91,0011.17
2021-11-02 21:31:00,,0829.5,5.01,0.00,24.5,23.8,00.0,33.5,26.4,21.2,-001.3,0015.95,0011.89,0011.16
2021-11-02 21:32:00,,0829.5,5.01,0.00,24.5,23.8,00.0,33.5,26.4,21.3,-001.3,0015.80,0011.83,0011.14
2021-11-02 21:33:00,,0829.5,5.00,0.00,24.5,23.8,00.0,33.5,26.4,21.2,-001.0,0015.66,0011.80,0011.15
2021-11-02 21:34:00,,0829.5,4.99,0.00,24.5,23.8,00.0,33.5,26.4,21.3,-000.8,0015.86,0011.80,0011.15
2021-11-02 21:35:00,,0829.6,5.00,0.00,24.5,23.8,00.0,33.5,26.4,21.4,-000.6,0015.78,0011.81,0011.16
2021-11-02 21:36:00,,0829.6,5.00,0.00,24.5,23.8,00.0,33.5,26.4,21.3,-000.3,0015.78,0011.81,0011.15
2021-11-02 21:37:00,,0829.6,4.99,0.00,24.5,23.8,00.0,33.5,26.4,21.2,-000.4,0015.52,0011.83,0011.16
2021-11-02 21:38:00,,0829.5,5.00,0.00,24.5,23.8,00.0,33.5,26.4,21.1,-000.7,0015.49,0011.85,0011.17
2021-11-02 21:39:00,,0829.5,5.00,0.00,24.5,23.8,00.0,33.5,26.4,21.1,-000.6,0015.34,0011.84,0011.18
2021-11-02 21:40:00,,0829.6,5.00,0.00,24.5,23.8,00.0,33.5,26.4,21.1,-000.6,0015.36,0011.85,0011.20
2021-11-02 21:41:00,,0829.6,5.01,0.00,24.5,23.8,00.0,33.5,26.4,21.1,-000.7,0015.24,0011.78,0011.19
2021-11-02 21:42:00,,0829.6,5.00,0.00,24.5,23.8,00.0,33.5,26.4,21.2,-000.7,0015.10,0011.78,0011.20
2021-11-02 21:43:00,,0829.6,5.00,0.00,24.5,23.8,00.0,33.5,26.4,21.2,-000.6,0015.28,0011.78,0011.20
2021-11-02 21:44:00,,0829.6,5.01,0.00,24.6,23.8,00.0,33.5,26.4,21.3,-000.6,0015.36,0011.79,0011.21
2021-11-02 21:45:00,,0829.6,4.99,0.00,24.6,23.8,00.0,33.5,26.4,21.4,-000.7,0015.22,0011.76,0011.21
2021-11-02 21:46:00,,0829.6,5.01,0.00,24.6,23.8,00.0,33.5,26.4,21.2,-000.7,0015.10,0011.75,0011.21
2021-11-02 21:47:00,,0829.7,5.01,0.00,24.6,23.8,00.0,33.5,26.4,21.1,-000.9,0015.55,0011.75,0011.23
2021-11-02 21:48:00,,0829.7,4.98,0.00,24.6,23.8,00.0,33.5,26.4,21.1,-001.2,0015.58,0011.67,0011.19
2021-11-02 21:49:00,,0829.8,5.01,0.00,24.6,23.8,00.0,33.6,26.4,21.1,-001.2,0016.24,0011.63,0011.14
2021-11-02 21:50:00,,0829.8,5.01,0.00,24.6,23.8,00.0,33.6,26.5,21.1,-001.5,0016.32,0011.57,0011.12
2021-11-02 21:51:00,,0829.7,4.99,0.00,24.6,23.8,00.0,33.6,26.5,21.2,-001.7,0016.24,0011.53,0011.10
2021-11-02 21:52:00,,0829.7,5.01,0.00,24.6,23.8,00.0,33.6,26.5,21.2,-001.8,0016.19,0011.53,0011.11
2021-11-02 21:53:00,,0829.7,5.01,0.00,24.6,23.8,00.0,33.6,26.5,21.3,-001.9,0016.42,0011.54,0011.08
2021-11-02 21:54:00,,0829.7,5.00,0.00,24.6,23.8,00.0,33.6,26.5,21.4,-002.0,0016.33,0011.53,0011.07
2021-11-02 21:55:00,,0829.7,4.98,0.00,24.6,23.8,00.0,33.6,26.5,21.3,-002.1,0016.17,0011.49,0011.06
2021-11-02 21:56:00,,0829.7,5.02,0.00,24.6,23.9,00.0,33.6,26.5,21.1,-002.3,0016.08,0011.49,0011.06
2021-11-02 21:57:00,,0829.7,5.00,0.00,24.6,23.9,00.0,33.6,26.5,21.2,-002.2,0016.00,0011.48,0011.06
2021-11-02 21:58:00,,0829.8,4.99,0.00,24.6,23.9,00.0,33.6,26.5,21.2,-002.2,0015.64,0011.49,0011.04
2021-11-02 21:59:00,,0829.8,5.01,0.00,24.6,23.9,00.0,33.6,26.5,21.2,-001.9,0015.89,0011.57,0011.09
